STARLINK-2143, 47733

Orbit data source: Space-Track

STARLINK-2143, 47733 is a payload satellite owned by SpaceX/Seattle (US) in LEO that was launched on Thu, 04 Mar 2021 UTC via an FALCON 9 launch vehicle from the Air Force Eastern Test Range (AFETR). Payload-class satellites include a variety of spacecraft equipped with specific instruments for various scientific and technological missions. These include communications satellites like Starlink; space stations such as the ISS; scientific satellites like the Hubble; Earth observation satellites from companies like Planet Labs, Umbra, and HawkEye 360; GPS; miniature CubeSats for education and research; and military/defense satellites.

Loading next visibility...
Identifier
47733, 2021-017M
Orbit
LEO
Country
Flag of USUS
Related business
Manufacturer
SpaceX/Seattle
Mission
Operational Commercial Communications
Bus & Motor
STARLINK, Unknown motor
Mass
260 kg wet, ~248 kg dry
Launch date (UTC)
2021-03-04 (5 years ago)
Launch vehicle
FALCON 9
Launch site
Air Force Eastern Test Range (AFETR)
Object type
Payload
Rocket body
Debris
Shape & HBR
Box + 1 Pan, 10.1 m
Radar Cross Section
13.562 m², Large (>1 m²)

Expand to show TLE details & history
Last TLE update: 9 hours ago

TLE from 9 hours ago
0 STARLINK-2143
1 47733U 21017M   26236.21639992  .00001116  00000-0  47726-4 0  9994
2 47733  53.1605 157.1018 0001551  90.8525 269.2654 15.31698271303384
Epoch: 2026-08-24T05:11Z
TLE epoch observation values (Epoch: 2026-08-24T05:11:36.953Z)
Latitude
-0.00001°
Longitude
106.69653°
Altitude
471.659 km
Speed
7.631 km/s
True Right ascension
10h 28m 24s
True Declination
0° 00' 00"
Sunlit
Object was in daylight at epoch
Visualization orbit readout
Latitude
Unknown
Longitude
Unknown
Altitude
Unknown
Speed
Unknown
Apparent Right ascension
Unknown
Apparent Declination
Unknown
Sunlit
N/A
Visualization observer readout
Local Sidereal Time
05:48:07
Azimuth
Unknown
Elevation
Unknown
Doppler factor
Unknown
Orbital elements
Apogee altitude
472.064 km
Perigee altitude
469.939 km
Semi-major axis
6,849.139 km
Eccentricity
0.00016
Inclination
53.1605°
RAAN
157.1018°
Arg. of periapsis
90.8525°
True anomaly
269.24763°
Mean anomaly
269.2654°
Eccentric anomaly
269.25651°
Mean motion
3.82903 °/min
Orbital period
94.02 mins
BSTAR
0.000047726
Loading maneuver chart data...
Computing Atmospheric mass density...

Documentation

Showing up to 5 results
|